Theta_e
321 322 323 324 324 325 326 326 326 326 327 327 326 327 327 327 325 315 309 318 319 327 322 314 313 312 313 311 311 310 297 296 299 298 298 301 299 301 299 298 300 303 300 300 305
319 319 320 321 322 324 325 325 325 325 326 326 326 326 327 326 317 313 323 329 328 328 315 310 309 310 307 309 308 303 299 300 301 300 298 301 300 300 297 298 299 300 301 302 302
318 318 319 319 320 322 323 323 324 325 325 325 325 325 325 323 312 312 329 329 328 324 315 312 311 310 306 308 306 303 298 303 302 302 301 301 300 302 298 297 300 300 301 300 299
317 317 317 317 319 320 321 322 323 324 324 324 324 325 324 320 300 314 327 325 325 318 312 310 309 306 303 303 307 299 304 304 305 303 301 299 301 300 300 300 303 301 302 300 300
316 316 316 316 318 319 320 320 321 323 323 323 324 324 320 309 308 315 323 322 315 312 309 308 306 306 303 304 304 301 302 304 304 302 301 302 299 299 299 302 305 304 302 300 300
316 316 315 315 317 318 318 319 320 322 322 322 323 323 313 301 313 314 310 311 311 309 307 307 306 306 303 303 301 302 302 302 302 302 302 299 298 299 300 303 303 303 300 300 300
316 315 315 315 316 317 317 318 319 321 321 322 323 321 309 305 313 311 310 309 309 309 306 308 308 305 306 303 304 301 296 299 300 301 299 300 296 297 302 301 301 301 301 300 300
316 314 314 316 316 316 317 318 319 320 322 324 324 317 304 313 312 310 310 308 309 309 309 309 308 306 304 304 301 296 296 291 298 301 299 298 291 299 303 301 299 299 299 300 300
316 315 314 315 316 316 317 317 318 321 323 322 317 313 304 314 309 311 309 307 307 308 308 308 308 303 302 296 293 295 290 292 296 301 297 295 292 299 298 299 297 298 298 299 300
316 315 316 316 316 316 317 318 320 318 319 319 313 306 306 305 309 309 308 309 306 306 304 304 301 297 296 294 287 290 290 293 292 296 296 293 293 298 299 298 297 298 298 299 300
316 316 316 316 316 317 314 312 307 308 309 305 305 304 305 309 311 306 306 305 305 303 295 300 294 291 295 297 297 295 294 292 296 298 295 294 295 297 299 299 297 299 300 300 299
317 317 317 317 317 317 314 305 305 305 296 303 304 306 308 309 304 306 306 299 299 294 297 296 292 298 299 298 295 294 291 292 295 297 294 293 293 296 297 298 300 299 300 301 298
317 316 316 316 317 314 309 307 311 311 298 299 302 302 302 306 301 302 302 300 296 294 295 292 295 300 297 295 294 293 291 291 291 294 292 289 288 292 295 298 299 300 300 300 297
318 317 316 316 312 311 307 309 311 310 290 294 298 302 304 304 297 304 304 301 297 294 295 294 298 297 294 293 294 289 294 294 292 289 285 291 282 290 292 293 294 296 297 296 296
317 316 316 315 309 307 307 309 309 305 280 298 296 305 304 298 298 297 300 298 295 294 294 292 293 292 292 293 295 291 292 290 290 288 286 287 284 287 292 290 293 295 297 297 297
317 316 315 313 312 312 311 308 305 289 279 293 297 296 296 297 297 296 296 298 298 294 294 293 295 294 294 292 293 292 290 289 287 285 280 286 286 284 288 291 292 294 295 296 296
317 316 313 315 309 310 309 304 288 282 294 292 293 295 294 294 294 293 291 289 288 285 286 290 292 293 294 290 290 289 287 280 278 277 280 287 284 289 291 292 293 294 295 295 296
317 316 313 314 315 311 304 295 282 293 292 295 294 295 291 294 294 293 291 288 291 290 287 286 285 291 292 292 290 287 288 281 275 279 283 283 280 286 294 295 294 295 297 295 294
317 314 311 312 311 309 299 284 289 296 298 296 296 290 290 292 293 292 290 290 292 292 287 286 286 290 291 292 293 288 284 289 283 278 277 285 287 291 292 293 293 293 292 292 293
313 311 309 314 311 305 292 290 294 302 301 296 290 291 287 290 289 290 290 293 292 295 296 291 286 290 287 288 288 287 289 282 283 272 272 282 283 286 290 293 291 289 291 291 292
311 305 310 314 309 298 286 288 295 300 301 296 294 290 290 288 290 290 290 294 295 294 296 292 289 286 286 284 286 283 284 284 285 283 277 278 282 288 289 290 291 291 292 292 293
309 297 308 309 295 294 290 294 297 297 301 295 293 293 292 292 290 289 289 291 296 295 290 293 289 284 287 290 290 289 288 288 283 282 281 283 284 292 293 291 292 292 293 293 294
301 302 306 308 292 292 293 294 296 296 296 297 295 295 296 290 287 290 291 296 296 294 290 292 285 280 282 288 287 284 287 289 289 287 283 280 283 293 296 290 290 290 291 293 293
298 293 296 298 301 296 294 291 291 297 296 297 296 296 293 290 292 289 290 294 296 296 296 295 288 284 280 284 288 285 287 287 287 282 283 283 285 291 293 294 295 296 295 293 293
296 293 297 288 290 293 295 294 291 290 296 297 294 294 290 287 290 288 290 291 294 295 293 290 282 286 286 288 288 286 287 287 286 286 282 285 285 289 292 294 295 296 296 294 294
289 290 291 289 291 289 290 289 290 293 294 293 292 295 295 290 291 290 290 291 289 290 291 291 283 285 283 286 286 284 286 287 286 287 287 288 287 293 294 295 295 296 296 296 295
296 296 289 286 287 286 287 289 290 288 290 295 294 293 293 294 296 297 298 298 296 292 289 286 284 283 280 284 284 280 284 286 287 289 288 284 289 294 294 294 295 296 297 296 294
Wind_Speed
17 17 17 17 18 17 17 17 16 15 13 12 12 10 9 8 5 4 7 3 7 8 1 5 5 6 5 5 3 2 3 6 9 1 1 5 4 5 1 2 3 7 2 4 15
16 17 17 18 18 18 18 18 17 16 15 14 14 12 8 7 5 12 5 12 11 8 4 6 7 7 4 4 3 3 3 5 3 5 3 5 7 6 2 5 6 5 7 7 12
15 16 17 18 18 18 18 18 17 16 16 14 13 11 8 6 5 1 4 10 9 6 4 5 6 5 7 5 6 6 5 1 4 2 4 5 5 7 6 8 8 12 12 13 10
15 16 17 17 18 19 19 18 17 17 17 15 14 12 8 4 5 3 6 8 8 6 4 4 4 3 5 8 9 4 10 10 2 2 1 4 3 6 11 12 1 1 2 17 19
15 17 18 18 19 20 20 19 18 16 16 16 14 11 5 5 6 6 7 6 6 5 5 6 7 7 7 5 1 8 10 8 6 5 6 8 10 8 13 11 14 8 4 14 15
15 16 17 19 20 21 22 21 21 18 16 17 13 6 4 8 5 11 7 5 6 5 6 5 5 4 5 7 6 5 7 10 8 9 7 6 7 5 10 15 14 9 12 11 14
14 16 17 19 20 22 24 24 22 20 18 14 7 3 7 13 6 7 8 3 3 4 7 5 3 4 4 7 7 3 7 9 11 10 6 5 11 16 21 5 8 10 11 12 13
13 15 17 14 17 21 24 25 23 22 17 8 4 5 8 4 4 5 6 3 4 3 3 4 2 4 3 3 5 4 5 5 4 10 6 10 14 10 18 11 14 11 10 9 13
7 9 13 14 17 19 21 26 25 17 8 3 5 4 6 1 3 6 7 4 6 3 2 2 3 4 4 3 5 8 7 10 9 10 9 10 10 7 2 6 7 10 11 12 13
9 9 10 11 16 18 23 25 10 5 5 5 6 1 5 3 4 4 1 4 3 7 4 5 5 4 4 6 9 7 8 8 11 8 7 8 18 13 10 6 11 11 12 14 14
8 10 10 12 15 17 13 7 2 3 5 8 6 5 5 5 1 5 5 5 3 4 7 7 6 13 19 15 17 14 16 17 22 12 9 17 19 16 12 12 12 14 16 15 12
9 10 10 12 15 17 9 3 5 2 10 11 16 11 1 6 6 9 8 9 7 11 8 4 15 18 9 11 8 10 12 20 18 13 10 11 15 10 9 16 20 17 18 20 8
10 9 10 14 13 10 5 3 2 3 6 7 12 7 5 9 9 12 15 7 8 9 14 19 8 17 13 11 11 17 12 16 18 13 5 5 8 12 11 20 18 18 21 16 11
11 9 7 15 5 6 2 6 5 4 6 6 7 1 4 3 6 5 12 5 9 15 12 18 18 18 15 19 10 22 10 12 13 7 9 5 10 9 6 8 10 16 15 11 11
11 9 2 3 6 4 3 4 5 3 10 2 3 2 3 5 2 2 5 2 15 7 5 9 5 7 13 19 11 11 3 2 4 6 6 5 10 8 11 10 14 12 16 11 10
11 9 6 4 4 1 1 5 3 3 11 4 6 5 4 6 2 2 2 2 2 5 11 17 4 3 4 3 0 3 0 4 3 2 12 12 12 5 9 11 7 10 13 12 7
14 11 9 2 2 3 2 2 4 10 3 7 7 7 5 6 6 8 7 7 7 3 8 6 19 4 5 3 2 3 3 4 4 2 15 12 13 17 6 8 11 12 13 9 9
13 13 10 8 4 3 2 4 14 7 19 3 3 6 6 8 7 8 5 6 14 6 4 5 8 18 9 16 9 9 10 7 8 11 23 5 11 7 10 11 12 13 16 10 9
11 3 3 8 5 3 5 4 16 5 6 13 17 12 8 9 7 8 10 7 8 20 12 8 10 4 7 3 10 6 7 4 3 2 5 12 13 9 8 12 12 13 9 9 9
1 3 4 14 11 5 2 17 17 9 8 5 13 7 11 13 11 10 9 7 7 14 18 5 9 9 4 4 3 4 1 3 2 2 9 22 17 18 7 18 10 6 9 7 9
2 4 1 13 8 4 8 13 12 11 13 9 16 17 18 15 15 15 16 17 6 6 18 6 6 8 7 9 10 2 4 4 2 7 10 15 18 5 6 2 9 8 6 8 10
3 6 6 12 5 5 12 9 9 20 11 7 2 14 20 21 19 16 20 21 17 10 2 4 2 8 16 7 5 8 15 14 12 19 4 11 31 2 9 7 10 11 10 8 9
4 3 6 6 10 10 4 14 16 19 19 8 13 13 14 15 11 15 19 27 18 5 2 7 3 6 9 15 6 7 5 11 12 12 19 19 27 7 19 8 5 6 6 8 10
4 4 3 4 9 17 18 12 17 16 24 23 15 12 13 14 18 7 13 12 12 15 14 11 9 15 17 19 13 13 20 12 14 12 23 25 32 33 27 26 24 21 12 11 10
4 5 4 4 8 16 16 11 19 15 22 17 11 28 16 11 19 18 20 28 18 9 6 8 11 20 28 28 30 32 32 29 28 25 23 26 27 28 31 21 26 18 17 10 12
4 4 4 3 7 8 5 17 30 29 24 23 29 26 22 26 27 25 22 20 21 2 19 11 11 15 21 27 30 32 32 32 35 36 35 36 35 32 31 29 31 29 27 18 18
2 2 1 6 7 10 15 11 2 9 10 19 22 25 26 26 28 31 29 24 17 12 12 11 9 8 19 22 25 23 36 36 34 32 34 31 40 43 35 33 38 28 21 19 13
Wind_Direction
18 12 12 10 7 4 2 359 358 355 355 354 352 343 328 320 312 198 242 193 151 144 155 145 203 205 235 233 208 224 275 270 268 55 320 94 209 153 76 185 206 179 4 83 135
12 10 4 1 360 358 356 352 350 349 347 346 345 340 332 331 258 255 173 123 131 152 211 203 200 174 231 209 193 219 232 262 27 349 296 161 214 175 189 225 222 201 112 119 140
6 2 1 355 352 350 349 346 342 342 340 338 338 332 328 318 272 243 69 123 139 170 275 312 303 209 229 233 198 220 230 234 302 307 1 280 225 239 194 249 210 213 195 162 165
357 356 354 350 347 344 341 339 336 335 333 329 330 325 320 231 272 88 126 127 151 218 240 213 240 211 227 222 222 271 246 255 299 83 263 244 265 256 217 227 71 62 301 163 177
350 348 347 344 342 339 335 332 327 326 324 320 322 319 277 221 249 139 134 141 164 178 214 220 236 236 258 281 195 225 260 285 259 184 236 278 255 249 251 241 238 211 162 173 190
341 342 341 339 336 335 330 326 322 318 315 312 312 314 246 244 112 144 151 157 216 208 205 218 243 356 302 259 252 11 307 290 272 222 219 226 258 217 240 230 241 232 194 199 197
331 334 335 335 333 332 327 322 316 311 309 307 294 230 262 246 143 147 165 183 166 252 238 218 298 219 342 260 356 289 301 269 241 218 234 170 276 229 246 235 230 232 218 198 213
324 328 329 327 330 328 324 316 310 306 300 287 214 210 253 11 89 170 159 138 197 210 284 62 245 253 219 351 252 229 233 283 264 195 159 134 269 224 245 208 221 225 241 225 213
302 320 323 326 320 319 319 311 302 292 269 180 177 238 254 198 191 184 190 183 145 142 71 157 237 228 132 203 281 226 247 235 270 181 131 176 252 273 62 166 226 222 231 233 226
305 306 305 311 309 315 319 300 280 305 241 221 272 258 175 188 125 163 153 154 183 146 165 201 211 215 206 192 227 237 231 267 276 204 177 207 252 266 265 246 246 246 241 242 242
290 294 299 310 310 315 334 336 271 212 225 216 187 243 145 91 161 202 186 162 208 219 199 196 184 212 220 212 233 253 264 263 264 261 177 231 242 246 255 269 252 256 255 251 241
270 289 305 306 308 309 292 341 99 254 300 253 256 244 185 176 192 194 168 177 180 213 213 219 226 231 251 259 278 271 275 271 279 287 197 249 254 251 250 255 257 257 265 261 238
261 275 304 306 311 304 320 44 305 302 246 229 226 218 219 168 225 200 170 191 189 210 210 223 199 216 235 244 253 244 243 258 264 286 221 306 270 254 242 245 259 261 255 259 219
256 268 310 308 292 336 56 338 323 305 263 230 197 218 134 224 273 3 196 192 223 220 212 251 240 246 247 255 222 266 240 264 266 285 249 155 281 230 234 240 230 247 260 241 223
242 250 277 343 301 321 356 326 311 261 279 138 141 311 25 199 89 36 343 30 239 203 187 219 174 196 232 239 219 262 150 247 279 268 310 252 275 227 183 233 240 244 255 253 229
231 225 161 216 226 228 67 314 264 236 247 218 136 183 175 192 157 118 215 295 12 283 261 259 122 230 230 71 130 124 318 233 239 197 254 205 218 196 197 212 225 226 247 253 180
223 201 173 249 310 133 120 261 265 226 213 192 203 176 221 183 196 184 178 189 188 186 222 224 235 167 137 166 165 194 153 294 293 188 255 180 227 242 209 186 190 211 235 204 162
245 221 205 200 190 163 76 70 253 205 216 78 168 179 218 184 224 195 214 231 217 239 305 228 279 180 177 208 169 183 181 173 233 259 276 165 251 241 204 219 209 205 232 157 165
259 213 200 188 161 134 108 174 235 254 260 265 290 265 233 213 234 175 219 240 215 190 204 204 249 48 158 157 159 178 197 200 242 54 314 259 272 299 243 232 217 214 160 175 175
228 208 222 172 149 122 205 226 237 243 295 337 264 272 261 234 196 195 198 192 227 195 219 259 262 185 139 57 287 197 178 113 232 257 241 278 284 270 213 249 226 189 208 200 204
205 260 311 148 136 156 206 230 266 249 247 261 259 286 289 287 284 263 247 248 249 253 201 230 217 247 119 199 190 154 246 229 273 181 233 268 272 266 132 100 182 208 224 224 206
214 244 139 144 216 192 216 212 226 262 251 271 227 241 245 261 272 287 289 286 324 357 179 235 250 235 231 239 216 217 225 199 223 237 236 236 263 295 274 153 156 179 199 216 207
251 229 191 195 222 224 262 242 236 249 242 220 230 222 245 250 253 245 245 258 280 291 75 2 340 326 298 291 242 220 222 249 256 254 249 247 261 204 266 215 224 192 231 225 219
286 249 220 250 229 236 242 231 244 238 257 252 256 227 248 244 241 236 250 262 256 274 146 139 224 235 240 247 283 275 284 256 254 248 252 249 262 276 266 275 279 278 279 227 226
238 246 195 213 252 262 245 212 230 234 227 242 231 229 206 235 252 245 246 260 257 223 147 160 228 222 234 248 259 262 262 262 270 270 262 275 266 267 274 271 270 274 273 277 272
273 318 11 318 308 287 273 254 263 259 249 242 233 238 226 230 225 246 227 235 235 248 223 178 242 215 229 232 240 248 254 255 249 248 244 252 268 260 262 272 273 268 270 279 271
295 89 85 263 272 271 263 279 315 359 298 289 289 280 246 233 236 243 242 244 246 216 202 193 204 214 245 229 235 235 236 244 251 245 246 247 244 254 259 255 261 271 280 271 252